ACA7249 MMSM-KORD

Flight info

Callsign ACA7249
Flight time N/A
Altitude 41000
Route IKLAN2D IKLAN UT139 ONGOB UJ35 MAM/N0449F400 DCT CRP DCT CWK/N0452F410 DCT WINDU DCT CVE DCT BYP DCT FSM DCT KK51I DCT KG63K DCT BDF DCT BYLAW BENKY6
Aircraft B763/H-SDE3FGHIM3RWXY/LB1

Departure

Time N/A
Airport Felipe Ángeles International Airport (MMSM)

Arrival

Time 2026-05-04 20:01
Airport Chicago O'Hare International Airport (KORD)
Time Latitude Longitude Altitude Speed Heading
2026-05-04 18:46 36.33723 -93.60170 40854 ft 432 kts 16°
2026-05-04 18:46 36.36320 -93.58308 40851 ft 431 kts 16°
2026-05-04 18:47 36.41470 -93.54613 40854 ft 428 kts 17°
2026-05-04 18:47 36.46681 -93.50874 40852 ft 430 kts 17°
2026-05-04 18:48 36.51814 -93.47180 40851 ft 427 kts 16°
2026-05-04 18:48 36.56968 -93.43469 40850 ft 432 kts 17°
2026-05-04 18:49 36.62165 -93.39715 40839 ft 431 kts 17°
2026-05-04 18:49 36.67316 -93.35989 40853 ft 428 kts 17°
2026-05-04 18:50 36.72474 -93.32260 40829 ft 433 kts 18°
2026-05-04 18:50 36.77697 -93.28470 40813 ft 431 kts 18°
2026-05-04 18:51 36.82872 -93.24714 40817 ft 434 kts 18°
2026-05-04 18:51 36.88047 -93.20944 40806 ft 429 kts 18°
2026-05-04 18:52 36.93209 -93.17189 40795 ft 433 kts 18°
2026-05-04 18:52 36.98426 -93.13380 40798 ft 434 kts 18°
2026-05-04 18:53 37.03629 -93.09573 40795 ft 434 kts 18°
2026-05-04 18:53 37.08864 -93.05745 40798 ft 435 kts 19°
2026-05-04 18:54 37.14059 -93.01938 40822 ft 437 kts 19°
2026-05-04 18:54 37.19316 -92.98073 40802 ft 432 kts 19°
2026-05-04 18:55 37.24484 -92.94274 40810 ft 433 kts 19°
2026-05-04 18:55 37.32305 -92.88509 40806 ft 434 kts 19°
2026-05-04 18:56 37.37484 -92.84683 40808 ft 432 kts 19°
2026-05-04 18:56 37.42679 -92.80844 40805 ft 435 kts 19°
2026-05-04 18:57 37.47906 -92.76969 40809 ft 437 kts 19°
2026-05-04 18:57 37.53095 -92.73117 40806 ft 435 kts 19°
2026-05-04 18:58 37.58331 -92.69226 40802 ft 437 kts 19°
2026-05-04 18:58 37.63527 -92.65356 40808 ft 437 kts 19°
2026-05-04 18:59 37.68776 -92.61441 40802 ft 437 kts 20°
2026-05-04 18:59 37.73959 -92.57568 40790 ft 435 kts 19°
2026-05-04 19:00 37.79170 -92.53670 40782 ft 435 kts 20°
2026-05-04 19:00 37.84372 -92.49770 40777 ft 436 kts 20°
2026-05-04 19:01 37.89612 -92.45840 40775 ft 437 kts 20°
2026-05-04 19:01 37.94791 -92.41939 40769 ft 436 kts 20°
2026-05-04 19:02 38.00035 -92.37991 40761 ft 438 kts 20°
2026-05-04 19:02 38.05244 -92.34058 40753 ft 437 kts 21°
2026-05-04 19:03 38.10458 -92.30119 40754 ft 437 kts 21°
2026-05-04 19:03 38.15678 -92.26170 40772 ft 440 kts 21°
2026-05-04 19:04 38.20916 -92.22193 40765 ft 437 kts 21°
2026-05-04 19:04 38.26118 -92.18243 40748 ft 438 kts 21°
2026-05-04 19:05 38.31345 -92.14266 40753 ft 438 kts 22°
2026-05-04 19:05 38.36540 -92.10304 40740 ft 437 kts 22°
2026-05-04 19:06 38.41774 -92.06309 40752 ft 438 kts 22°
2026-05-04 19:06 38.46999 -92.02312 40758 ft 439 kts 22°
2026-05-04 19:07 38.52092 -91.97941 40741 ft 444 kts 28°
2026-05-04 19:07 38.57032 -91.93214 40749 ft 445 kts 28°
2026-05-04 19:08 38.62207 -91.88224 40741 ft 445 kts 29°
2026-05-04 19:08 38.67165 -91.83425 40750 ft 446 kts 29°
2026-05-04 19:09 38.72098 -91.78638 40744 ft 447 kts 29°
2026-05-04 19:09 38.77039 -91.73832 40753 ft 446 kts 29°
2026-05-04 19:10 38.81970 -91.69030 40737 ft 447 kts 30°
2026-05-04 19:10 38.86885 -91.64234 40742 ft 446 kts 30°
2026-05-04 19:11 38.91814 -91.59416 40731 ft 446 kts 30°
2026-05-04 19:11 38.96726 -91.54608 40729 ft 444 kts 30°
2026-05-04 19:12 39.04107 -91.47366 40726 ft 447 kts 30°
2026-05-04 19:13 39.09040 -91.42512 40718 ft 445 kts 30°
2026-05-04 19:13 39.13965 -91.37659 40731 ft 447 kts 30°
2026-05-04 19:14 39.18899 -91.32787 40727 ft 445 kts 31°
2026-05-04 19:14 39.23784 -91.27958 40716 ft 446 kts 31°
2026-05-04 19:15 39.28696 -91.23091 40724 ft 446 kts 31°
2026-05-04 19:15 39.33612 -91.18209 40716 ft 447 kts 31°
2026-05-04 19:16 39.38526 -91.13326 40716 ft 446 kts 31°
2026-05-04 19:16 39.43457 -91.08415 40728 ft 447 kts 31°
2026-05-04 19:17 39.48358 -91.03524 40701 ft 447 kts 31°
2026-05-04 19:17 39.53176 -90.98706 40703 ft 447 kts 31°
2026-05-04 19:18 39.58068 -90.93806 40706 ft 446 kts 31°
2026-05-04 19:18 39.62995 -90.88863 40723 ft 448 kts 31°
2026-05-04 19:19 39.67888 -90.83943 40704 ft 445 kts 31°
2026-05-04 19:19 39.72784 -90.79013 40728 ft 447 kts 32°
2026-05-04 19:20 39.77693 -90.74060 40718 ft 446 kts 32°
2026-05-04 19:20 39.82552 -90.69149 40708 ft 447 kts 32°
2026-05-04 19:21 39.87455 -90.64182 40705 ft 448 kts 32°
2026-05-04 19:21 39.92347 -90.59219 40712 ft 445 kts 32°
2026-05-04 19:22 39.97242 -90.54243 40690 ft 447 kts 32°
2026-05-04 19:22 40.02124 -90.49271 40700 ft 447 kts 32°
2026-05-04 19:23 40.07025 -90.44270 40690 ft 446 kts 32°
2026-05-04 19:23 40.11895 -90.39293 40701 ft 448 kts 32°
2026-05-04 19:24 40.16801 -90.34267 40695 ft 448 kts 32°
2026-05-04 19:24 40.21687 -90.29255 40682 ft 448 kts 32°
2026-05-04 19:25 40.26581 -90.24223 40659 ft 448 kts 32°
2026-05-04 19:25 40.29021 -90.21713 40280 ft 450 kts 32°
2026-05-04 19:25 40.31449 -90.19207 40246 ft 442 kts 32°
2026-05-04 19:25 40.33879 -90.16703 39552 ft 450 kts 33°
2026-05-04 19:26 40.36333 -90.14173 39027 ft 450 kts 33°
2026-05-04 19:26 40.38780 -90.11639 38637 ft 448 kts 33°
2026-05-04 19:26 40.41238 -90.09103 37740 ft 455 kts 33°
2026-05-04 19:26 40.43712 -90.06541 37183 ft 455 kts 33°
2026-05-04 19:27 40.46177 -90.03985 36645 ft 455 kts 33°
2026-05-04 19:27 40.48667 -90.01426 36109 ft 456 kts 31°
2026-05-04 19:27 40.51335 -89.99274 35818 ft 445 kts 21°
2026-05-04 19:27 40.54094 -89.97530 35521 ft 441 kts 21°
2026-05-04 19:28 40.56870 -89.95789 35011 ft 444 kts 21°
2026-05-04 19:28 40.59647 -89.94057 34507 ft 445 kts 21°
2026-05-04 19:28 40.62465 -89.92303 33922 ft 447 kts 21°
2026-05-04 19:28 40.65248 -89.90572 33366 ft 448 kts 21°
2026-05-04 19:29 40.68080 -89.88810 32792 ft 448 kts 21°
2026-05-04 19:29 40.70874 -89.87072 32249 ft 448 kts 21°
2026-05-04 19:29 40.73701 -89.85310 31699 ft 448 kts 21°
2026-05-04 19:29 40.76509 -89.83561 31162 ft 447 kts 21°
2026-05-04 19:30 40.79283 -89.81831 30640 ft 445 kts 21°
2026-05-04 19:30 40.82079 -89.80086 30094 ft 444 kts 21°
2026-05-04 19:30 40.84890 -89.78329 29537 ft 442 kts 21°
2026-05-04 19:30 40.87638 -89.76609 29000 ft 440 kts 21°
2026-05-04 19:31 40.90393 -89.74885 28465 ft 438 kts 21°
2026-05-04 19:31 40.93134 -89.73167 27940 ft 435 kts 21°
2026-05-04 19:31 40.95839 -89.71471 27428 ft 433 kts 21°
2026-05-04 19:31 40.98557 -89.69765 26926 ft 430 kts 21°
2026-05-04 19:32 41.01238 -89.68080 26444 ft 426 kts 21°
2026-05-04 19:32 41.03709 -89.66527 26018 ft 423 kts 21°
2026-05-04 19:32 41.06344 -89.64868 25582 ft 419 kts 21°
2026-05-04 19:32 41.08977 -89.63209 25164 ft 415 kts 21°
2026-05-04 19:33 41.11546 -89.61571 24765 ft 411 kts 23°
2026-05-04 19:33 41.13953 -89.59503 24376 ft 411 kts 36°
2026-05-04 19:33 41.15931 -89.56807 23986 ft 414 kts 47°
2026-05-04 19:33 41.17622 -89.53706 23390 ft 422 kts 53°
2026-05-04 19:34 41.19181 -89.50384 22829 ft 422 kts 56°
2026-05-04 19:34 41.20647 -89.47053 22312 ft 421 kts 57°
2026-05-04 19:34 41.22073 -89.43681 21799 ft 420 kts 58°
2026-05-04 19:34 41.23486 -89.40266 21290 ft 418 kts 58°
2026-05-04 19:35 41.24858 -89.36913 20814 ft 416 kts 58°
2026-05-04 19:35 41.26233 -89.33533 20340 ft 413 kts 59°
2026-05-04 19:35 41.27575 -89.30218 19956 ft 408 kts 59°
2026-05-04 19:35 41.28912 -89.26907 19451 ft 407 kts 59°
2026-05-04 19:36 41.30233 -89.23620 18891 ft 407 kts 59°
2026-05-04 19:36 41.31557 -89.20316 18428 ft 404 kts 59°
2026-05-04 19:36 41.32864 -89.17052 17984 ft 401 kts 59°
2026-05-04 19:36 41.34181 -89.13758 17610 ft 397 kts 59°
2026-05-04 19:37 41.35464 -89.10547 17230 ft 393 kts 59°
2026-05-04 19:37 41.36734 -89.07365 16843 ft 390 kts 59°
2026-05-04 19:37 41.38000 -89.04190 16483 ft 389 kts 59°
2026-05-04 19:37 41.39265 -89.01015 16069 ft 389 kts 59°
2026-05-04 19:38 41.40514 -88.97875 15672 ft 386 kts 59°
2026-05-04 19:38 41.41769 -88.94716 15267 ft 384 kts 59°
2026-05-04 19:38 41.43004 -88.91605 14845 ft 382 kts 59°
2026-05-04 19:38 41.44244 -88.88480 14423 ft 381 kts 59°
2026-05-04 19:39 41.45478 -88.85364 13992 ft 379 kts 59°
2026-05-04 19:39 41.46708 -88.82256 13562 ft 378 kts 59°
2026-05-04 19:39 41.47919 -88.79191 13137 ft 376 kts 59°
2026-05-04 19:39 41.49129 -88.76127 12776 ft 372 kts 59°
2026-05-04 19:40 41.50329 -88.73085 12292 ft 373 kts 59°
2026-05-04 19:40 41.51529 -88.70041 12004 ft 366 kts 60°
2026-05-04 19:40 41.52702 -88.67063 12003 ft 357 kts 59°
2026-05-04 19:40 41.53863 -88.64117 12017 ft 362 kts 59°
2026-05-04 19:41 41.55037 -88.61138 12014 ft 366 kts 59°
2026-05-04 19:41 41.56234 -88.58144 12003 ft 363 kts 56°
2026-05-04 19:41 41.57755 -88.55508 11989 ft 358 kts 43°
2026-05-04 19:41 41.59436 -88.53059 11925 ft 360 kts 44°
2026-05-04 19:42 41.61114 -88.50591 11923 ft 358 kts 43°
2026-05-04 19:42 41.62731 -88.48081 11859 ft 362 kts 51°
2026-05-04 19:42 41.64138 -88.45243 11663 ft 363 kts 53°
2026-05-04 19:42 41.65555 -88.42483 11452 ft 359 kts 52°
2026-05-04 19:43 41.66957 -88.39785 11253 ft 355 kts 51°
2026-05-04 19:43 41.68382 -88.37071 11055 ft 354 kts 51°
2026-05-04 19:43 41.69791 -88.34395 10859 ft 355 kts 52°
2026-05-04 19:43 41.71225 -88.31674 10645 ft 354 kts 52°
2026-05-04 19:44 41.72638 -88.28994 10436 ft 353 kts 52°
2026-05-04 19:44 41.74025 -88.26363 10338 ft 344 kts 52°
2026-05-04 19:44 41.75380 -88.23786 10317 ft 331 kts 52°
2026-05-04 19:44 41.76687 -88.21300 10283 ft 319 kts 52°
2026-05-04 19:45 41.77953 -88.18893 10087 ft 315 kts 52°
2026-05-04 19:45 41.79198 -88.16527 9920 ft 310 kts 52°
2026-05-04 19:45 41.80438 -88.14167 9747 ft 308 kts 52°
2026-05-04 19:45 41.81661 -88.11837 9587 ft 307 kts 52°
2026-05-04 19:46 41.82875 -88.09521 9429 ft 306 kts 52°
2026-05-04 19:46 41.84103 -88.07175 9268 ft 305 kts 52°
2026-05-04 19:46 41.85321 -88.04851 9114 ft 304 kts 52°
2026-05-04 19:46 41.86531 -88.02537 8969 ft 304 kts 52°
2026-05-04 19:47 41.87708 -88.00189 8817 ft 304 kts 60°
2026-05-04 19:47 41.88303 -87.97497 8682 ft 304 kts 86°
2026-05-04 19:47 41.88369 -87.94675 8559 ft 306 kts 90°
2026-05-04 19:47 41.88407 -87.91788 8405 ft 305 kts 90°
2026-05-04 19:48 41.88425 -87.88978 8259 ft 303 kts 90°
2026-05-04 19:48 41.88432 -87.86144 8115 ft 302 kts 91°
2026-05-04 19:48 41.88434 -87.83347 7982 ft 302 kts 91°
2026-05-04 19:48 41.88432 -87.80528 7844 ft 302 kts 91°
2026-05-04 19:49 41.88430 -87.77703 7599 ft 304 kts 91°
2026-05-04 19:49 41.88428 -87.74889 7255 ft 306 kts 91°
2026-05-04 19:49 41.88425 -87.72034 6893 ft 309 kts 91°
2026-05-04 19:49 41.88421 -87.69127 6498 ft 312 kts 91°
2026-05-04 19:50 41.88417 -87.66284 6335 ft 299 kts 91°
2026-05-04 19:50 41.88411 -87.63509 5910 ft 293 kts 91°
2026-05-04 19:50 41.88405 -87.60811 5535 ft 289 kts 91°
2026-05-04 19:50 41.88399 -87.58118 5171 ft 289 kts 91°
2026-05-04 19:51 41.88391 -87.55421 4857 ft 292 kts 91°
2026-05-04 19:51 41.88383 -87.52703 4499 ft 296 kts 91°
2026-05-04 19:51 41.88374 -87.49912 4036 ft 297 kts 91°
2026-05-04 19:51 41.88681 -87.47307 4022 ft 275 kts 65°
2026-05-04 19:52 41.89755 -87.45319 4022 ft 250 kts 34°
2026-05-04 19:52 41.91182 -87.44484 4052 ft 207 kts 358°
2026-05-04 19:52 41.92458 -87.44864 4035 ft 177 kts 316°
2026-05-04 19:52 41.93214 -87.46073 4081 ft 171 kts 296°
2026-05-04 19:53 41.93875 -87.47448 4010 ft 172 kts 298°
2026-05-04 19:53 41.94563 -87.48718 4027 ft 170 kts 301°
2026-05-04 19:53 41.95278 -87.50005 4081 ft 169 kts 300°
2026-05-04 19:53 41.95979 -87.51271 4071 ft 171 kts 300°
2026-05-04 19:54 41.96395 -87.52712 4024 ft 162 kts 270°
2026-05-04 19:54 41.96401 -87.54214 4050 ft 164 kts 267°
2026-05-04 19:54 41.96419 -87.55758 4039 ft 164 kts 268°
2026-05-04 19:54 41.96435 -87.57287 4037 ft 163 kts 268°
2026-05-04 19:55 41.96449 -87.58798 4039 ft 163 kts 268°
2026-05-04 19:55 41.96461 -87.60326 4041 ft 162 kts 268°
2026-05-04 19:55 41.96471 -87.61843 4033 ft 164 kts 267°
2026-05-04 19:55 41.96481 -87.63377 4027 ft 164 kts 268°
2026-05-04 19:56 41.96489 -87.64905 4011 ft 165 kts 267°
2026-05-04 19:56 41.96496 -87.66472 3813 ft 166 kts 267°
2026-05-04 19:56 41.96504 -87.67986 3605 ft 162 kts 267°
2026-05-04 19:56 41.96510 -87.69511 3407 ft 163 kts 267°
2026-05-04 19:57 41.96516 -87.71019 3205 ft 162 kts 267°
2026-05-04 19:57 41.96522 -87.72547 2998 ft 162 kts 267°
2026-05-04 19:57 41.96527 -87.74049 2794 ft 160 kts 267°
2026-05-04 19:57 41.96534 -87.75493 2574 ft 148 kts 266°
2026-05-04 19:58 41.96540 -87.76822 2371 ft 136 kts 266°
2026-05-04 19:58 41.96542 -87.78082 2205 ft 137 kts 266°
2026-05-04 19:58 41.96545 -87.79356 2039 ft 137 kts 266°
2026-05-04 19:58 41.96549 -87.80634 1869 ft 137 kts 266°
2026-05-04 19:59 41.96553 -87.81892 1691 ft 134 kts 265°
2026-05-04 19:59 41.96555 -87.83147 1530 ft 134 kts 265°
2026-05-04 19:59 41.96559 -87.84424 1348 ft 138 kts 265°
2026-05-04 19:59 41.96560 -87.85702 1165 ft 138 kts 266°
2026-05-04 20:00 41.96561 -87.87010 999 ft 142 kts 266°
2026-05-04 20:00 41.96564 -87.88308 814 ft 138 kts 266°
2026-05-04 20:00 41.96566 -87.89591 677 ft 137 kts 267°
2026-05-04 20:00 41.96568 -87.90742 668 ft 95 kts 268°
2026-05-04 20:01 41.96567 -87.91423 672 ft 43 kts 270°
2026-05-04 20:01 41.96567 -87.91735 671 ft 34 kts 270°
2026-05-04 20:01 41.96557 -87.92015 671 ft 23 kts 248°
2026-05-04 20:01 41.96439 -87.92084 671 ft 22 kts 185°
2026-05-04 20:02 41.96301 -87.92082 670 ft 20 kts 180°
2026-05-04 20:02 41.96254 -87.91999 669 ft 14 kts 75°
2026-05-04 20:02 41.96261 -87.91967 670 ft 0 kts 72°